Boscobel, WI

2:57 PM CDT on June 27, 2017 (GMT -0500)
Boscobel

Weather History for KOVS - April, 2013

Change the Weather History Date:

Monday, April 8, 2013

  Actual Average (KPDC) Record (KPDC)
Temperature  
Mean Temperature 54 °F -  
Max Temperature 68 °F 57 °F 79 °F (1971)
Min Temperature 42 °F 34 °F 0 °F (1972)
Degree Days  
Heating Degree Days 11    
Growing Degree Days 4 (Base 50)    
Moisture  
Dew Point 41 °F    
Average Humidity 71    
Maximum Humidity 89    
Minimum Humidity 45    
Precipitation  
Precipitation 0.02 in - - ()
Sea Level Pressure  
Sea Level Pressure 29.78 in    
Wind  
Wind Speed 4 mph (NE)    
Max Wind Speed 9 mph    
Max Gust Speed 16 mph    
Visibility 8 miles    
Events Rain    
Averages and records for this station are not official NWS values.
T = Trace of Precipitation, MM = Missing Value Source: NWS Daily Summary

Daily Weather History Graph

Daily Weather History Graph

Search for Another Location

Airport or City:

Trip Planner

Search our weather history database for the weather conditions in past years. The results will help you decide how hot, cold, wet, or windy it might be!

Date:

Astronomy

Apr. 08, 2013 Rise Set
Actual Time 6:31 AM CDT 7:37 PM CDT
Civil Twilight 6:02 AM CDT 8:06 PM CDT
Nautical Twilight 5:28 AM CDT 8:41 PM CDT
Astronomical Twilight 4:51 AM CDT 9:18 PM CDT
Moon 5:24 AM CDT (4/8) 6:10 PM CDT (4/8)
Length of Visible Light 14h 03m
Length of Day
13h 05m
Waning Crescent, 3% of the Moon is Illuminated
Apr 8
Waning Crescent
Apr 10
New
Apr 18
First Quarter
Apr 25
Full
May 2
Last Quarter

Hourly Weather History & Observations

Time (CDT) Temp. Windchill Dew Point Humidity Pressure Visibility Wind Dir Wind Speed Gust Speed Precip Events Conditions
12:53 AM 45.0 °F 43.5 °F 37.0 °F 74% 29.81 in 10.0 mi NE 3.5 mph - N/A   Clear
1:53 AM 46.0 °F 44.8 °F 37.9 °F 73% 29.79 in 10.0 mi NE 3.5 mph - N/A   Clear
2:53 AM 46.0 °F 42.5 °F 37.0 °F 71% 29.76 in 10.0 mi Variable 6.9 mph - N/A   Clear
3:53 AM 43.0 °F 41.3 °F 36.0 °F 76% 29.74 in 9.0 mi NE 3.5 mph - N/A   Partly Cloudy
4:53 AM 43.0 °F 40.3 °F 35.1 °F 74% 29.73 in 9.0 mi NNE 4.6 mph - N/A   Mostly Cloudy
6:30 AM 42.8 °F 41.1 °F 35.6 °F 76% 29.70 in 8.0 mi NE 3.5 mph - N/A Rain Light Rain
6:53 AM 42.1 °F - 37.0 °F 82% 29.72 in 8.0 mi Calm Calm - N/A Rain Light Rain
7:53 AM 42.1 °F - 37.9 °F 85% 29.73 in 4.0 mi Calm Calm - 0.01 in Rain Light Rain
8:07 AM 42.8 °F - 39.2 °F 87% 29.72 in 3.0 mi Calm Calm - 0.00 in Rain Light Rain
8:19 AM 42.8 °F - 39.2 °F 87% 29.71 in 2.5 mi Calm Calm - 0.01 in Rain Light Rain
8:32 AM 42.8 °F 40.1 °F 39.2 °F 87% 29.70 in 4.0 mi ENE 4.6 mph - 0.01 in Rain Light Rain
8:53 AM 42.1 °F 37.1 °F 39.0 °F 89% 29.66 in 4.0 mi ENE 8.1 mph - 0.01 in   Mostly Cloudy
9:14 AM 42.8 °F 40.1 °F 39.2 °F 87% 29.68 in 4.0 mi NE 4.6 mph - N/A   Mostly Cloudy
9:53 AM 45.0 °F 42.6 °F 41.0 °F 86% 29.71 in 5.0 mi East 4.6 mph - N/A   Mostly Cloudy
10:53 AM 48.0 °F - 42.1 °F 80% 29.75 in 6.0 mi Calm Calm - N/A   Haze
11:53 AM 53.1 °F - 44.1 °F 71% 29.75 in 7.0 mi Calm Calm - N/A   Clear
12:53 PM 59.0 °F - 46.0 °F 62% 29.75 in 10.0 mi Variable 3.5 mph - N/A   Clear
1:53 PM 64.9 °F - 45.0 °F 48% 29.76 in 10.0 mi SSW 9.2 mph - N/A   Clear
2:53 PM 66.9 °F - 45.0 °F 45% 29.75 in 10.0 mi Variable 5.8 mph - N/A   Partly Cloudy
3:53 PM 64.9 °F - 48.0 °F 54% 29.76 in 10.0 mi Variable 5.8 mph - N/A   Overcast
4:53 PM 66.0 °F - 48.0 °F 52% 29.79 in 10.0 mi SSW 6.9 mph - N/A   Mostly Cloudy
5:53 PM 66.0 °F - 48.0 °F 52% 29.81 in 10.0 mi NNW 3.5 mph - N/A   Clear
6:53 PM 64.0 °F - 48.0 °F 56% 29.83 in 10.0 mi NNE 3.5 mph - N/A   Clear
7:53 PM 57.0 °F - 46.0 °F 67% 29.87 in 10.0 mi NNE 5.8 mph - N/A   Clear
8:53 PM 55.0 °F - 44.1 °F 67% 29.91 in 10.0 mi ENE 5.8 mph - N/A   Clear
9:53 PM 52.0 °F - 41.0 °F 66% 29.95 in 10.0 mi NE 9.2 mph - N/A   Mostly Cloudy
10:53 PM 48.9 °F - 39.9 °F 71% 29.96 in 9.0 mi NE 9.2 mph 16.1 mph N/A   Mostly Cloudy
11:53 PM 46.9 °F - 39.9 °F 77% 29.97 in 8.0 mi NE 5.8 mph - N/A   Overcast